Location: Deurze
(52.9838°N, 6.6090°E)
Time: 19:16:43
(UTC+00:00)

USA 234 - Pass Details

Date: 11 March 2026
Orbit: 1102 x 1106 km, 123.0° (Epoch: 4 January)

Event Time Altitude Azimuth Distance (km) Brightness Sun altitude
Exits shadow 19:16:13 24° 100° (E) 2,112 4.1 -16.6°
Maximum altitude 19:20:27 77° 18° (NNE) 1,136 3.3 -17.2°
Drops below altitude 10° 19:27:00 10° 294° (WNW) 2,971 6.8 -18.1°
Sets 19:29:29 0° 293° (WNW) 3,931 7.9 -18.4°
